This demonstration page uses our WeatherBlox Daily Observations layout. Learn more.

Left ArrowRight Arrow

39.08367, -84.50855

Hourly Observations for April 26, 2019

Temp ( °F °C ) Dew Point ( °F °C ) Humidity (%) Winds ( mph kmh ) Pressure ( in mb ) Visibility ( mi km ) Precip ( " mm )
12:53 am 00:53 Cloudy 63 17.2 60 15.6 90 90 SSW 8 13 29.58 1002 10 16.0934 0 0.0254
1:51 am 01:51 Cloudy with Light Rain 63 17 61 16 94 94 SSW 12 19 29.54 1000 4 6.43736 0.05 1.27
1:53 am 01:53 Cloudy with Rain 62 16.7 60 15.6 93 93 SSW 12 19 29.54 1000 4 6.43736 0.05 1.27
2:30 am 02:30 Cloudy with Nearby Thunderstorms 63 17.2 59 15 87 87 SSW 14 22 29.52 1000 10 16.0934 0.01 0.254
2:43 am 02:43 Cloudy 62 16.7 59 15 90 90 SSW 15 24 29.51 999 10 16.0934 0.01 0.254
2:53 am 02:53 Cloudy 62 16.7 59 15 90 90 SSW 18 30 29.51 999 10 16.0934 0.01 0.254
3:08 am 03:08 Cloudy 62 16.7 59 15 90 90 SSW 16 26 29.5 999 10 16.0934 0 0
3:46 am 03:46 Cloudy with Heavy Rain 60 15.6 58 14.4 93 93 W 13 20 29.51 999 1.75 2.816345 0.11 2.794
3:51 am 03:51 Cloudy with Heavy Rain 61 16 57 14 88 88 WSW 13 20 29.51 999 2 3.21868 0.14 3.556
3:53 am 03:53 Cloudy with Heavy Rain 60 15.6 58 14.4 93 93 WSW 13 20 29.5 999 2.5 4.02335 0.14 3.556
4:02 am 04:02 Cloudy with Light Rain 60 15.6 58 14.4 93 93 WSW 8 13 29.5 999 8 12.87472 0.01 0.254
4:53 am 04:53 Cloudy with Light Rain 60 15.6 57 13.9 90 90 W 9 15 29.49 999 8 12.87472 0.02 0.508
5:53 am 05:53 Cloudy with Light Rain 59 15 55 12.8 87 87 W 9 15 29.51 999 10 16.0934 0.1 2.54
6:04 am 06:04 Cloudy with Light Rain 58 14.4 54 12.2 87 87 W 13 20 29.52 1000 10 16.0934 0.01 0.254
6:51 am 06:51 Cloudy with Light Rain 57 14 54 12 88 88 W 10 17 29.54 1000 6 9.65604 0.03 0.762
6:53 am 06:53 Cloudy with Light Rain 57 13.9 53 11.7 87 87 W 12 19 29.53 1000 6 9.65604 0.03 0.762
7:13 am 07:13 Cloudy with Light Rain 56 13.3 53 11.7 90 90 W 14 22 29.55 1001 5 8.0467 0.03 0.762
7:21 am 07:21 Cloudy with Light Rain 56 13.3 52 11.1 87 87 W 20 31 29.56 1001 8 12.87472 0.03 0.762
7:53 am 07:53 Cloudy 53 11.7 45 7.2 74 74 W 16 26 29.59 1002 10 16.0934 0.03 0.762
8:10 am 08:10 Cloudy 52 11.1 45 7.2 77 77 VRB 5 7 29.62 1003 10 16.0934 0 0
8:21 am 08:21 Cloudy 52 11.1 46 7.8 80 80 W 14 22 29.62 1003 10 16.0934 0 0
8:53 am 08:53 Cloudy 52 11.1 46 7.8 80 80 WNW 10 17 29.62 1003 8 12.87472 0 0
9:53 am 09:53 Cloudy with Rain 51 10.6 47 8.3 86 86 W 16 26 29.64 1004 7 11.26538 0.06 1.524
10:53 am 10:53 Cloudy with Rain 51 10.6 47 8.3 86 86 WNW 15 24 29.69 1006 5 8.0467 0.08 2.032
11:46 am 11:46 Cloudy with Light Rain 51 10.6 46 7.8 83 83 W 9 15 29.75 1007 10 16.0934 0.05 1.27
11:53 am 11:53 Mostly Cloudy 52 11.1 47 8.3 83 83 VRB 6 9 29.73 1007 10 16.0934 0.05 1.27
12:26 pm 12:26 Mostly Cloudy 54 12.2 47 8.3 77 77 VRB 7 11 29.74 1007 10 16.0934 0 0
12:53 pm 12:53 Mostly Cloudy 58 14.4 49 9.4 72 72 W 8 13 29.74 1007 10 16.0934 0 0
1:53 pm 13:53 Mostly Cloudy 61 16.1 47 8.3 60 60 WNW 12 19 29.75 1007 10 16.0934 0 0
2:53 pm 14:53 Mostly Sunny 63 17.2 47 8.3 56 56 WNW 13 20 29.77 1008 10 16.0934 0 0
3:53 pm 15:53 Mostly Cloudy with Light Rain 61 16.1 44 6.7 54 54 WNW 18 30 29.78 1008 10 16.0934 0 0.0254
4:53 pm 16:53 Partly Cloudy 65 18.3 41 5 42 42 WNW 17 28 29.79 1009 10 16.0934 0 0.0254
5:53 pm 17:53 Partly Cloudy 61 16.1 40 4.4 46 46 NW 10 17 29.81 1010 10 16.0934 0 0
6:53 pm 18:53 Mostly Sunny 62 16.7 39 3.9 43 43 NNW 12 19 29.83 1010 10 16.0934 0 0
7:53 pm 19:53 Sunny 60 15.6 33 0.6 36 36 WNW 9 15 29.85 1011 10 16.0934 0 0
8:53 pm 20:53 Partly Cloudy 58 14.4 35 1.7 42 42 W 8 13 29.87 1011 10 16.0934 0 0
9:53 pm 21:53 Clear 55 12.8 34 1.1 45 45 WSW 7 11 29.89 1012 10 16.0934 0 0
10:53 pm 22:53 Clear 53 11.7 36 2.2 52 52 W 5 7 29.9 1013 10 16.0934 0 0
11:53 pm 23:53 Clear 54 12.2 34 1.1 47 47 W 6 9 29.91 1013 10 16.0934 0 0

Powered by AerisWeather